{"data":{"norad_id":36605,"epoch":"2026-05-24T14:39:39.911904Z","epoch_age_seconds":118986,"freshness":"FRESH","line1":"1 36605U 10030A   26144.61087861  .00000259  00000+0  15507-4 0  9995","line2":"2 36605  97.4453 152.6534 0001625  94.4891 265.6529 15.19147721883067","mean_motion":15.19147721,"eccentricity":0.0001625,"inclination_deg":97.4453,"raan_deg":152.6534,"arg_perigee_deg":94.4891,"mean_anomaly_deg":265.6529,"bstar":1.5507e-5,"rev_number":88306,"period_min":94.789991789087,"perigee_km":507.29602813228,"apogee_km":509.53415756245,"semimajor_km":6886.5520928474,"source":"CELESTRAK","updated_at":"2026-05-25T13:38:12.777675Z"}}